Time,TemperatureF,DewpointF,PressureIn,WindDirection,WindDirectionDegrees,WindSpeedMPH,WindSpeedGustMPH,Humidity,HourlyPrecipIn,Conditions,Clouds,dailyrainin,SoftwareType,DateUTC
2013-01-08 00:00:00,31.5,28.3,30.39,South,179,0.0,4.9,88,0.00,,,0.00,VWS V14.00,2013-01-08 05:00:00,
2013-01-08 00:03:00,31.6,27.7,30.39,SSE,156,0.0,4.0,85,0.00,,,0.00,VWS V14.00,2013-01-08 05:03:00,
2013-01-08 00:05:00,31.6,27.4,30.39,South,171,5.4,6.3,84,0.00,,,0.00,VWS V14.00,2013-01-08 05:05:00,
2013-01-08 00:10:00,31.6,26.2,30.39,SE,143,0.0,6.3,80,0.00,,,0.00,VWS V14.00,2013-01-08 05:10:00,
2013-01-08 00:17:00,32.0,25.0,30.39,SW,227,4.0,6.3,75,0.00,,,0.00,VWS V14.00,2013-01-08 05:17:00,
2013-01-08 00:24:00,32.2,23.9,30.39,South,181,4.9,5.8,71,0.00,,,0.00,VWS V14.00,2013-01-08 05:24:00,
2013-01-08 00:30:00,32.2,23.2,30.39,SW,231,0.0,6.3,69,0.00,,,0.00,VWS V14.00,2013-01-08 05:30:00,
2013-01-08 00:35:00,32.4,23.3,30.39,SSW,208,0.0,0.0,69,0.00,,,0.00,VWS V14.00,2013-01-08 05:35:00,
2013-01-08 00:43:00,32.5,23.2,30.39,SSE,156,0.0,2.2,68,0.00,,,0.00,VWS V14.00,2013-01-08 05:43:00,
2013-01-08 00:50:00,32.7,22.6,30.39,SW,216,6.3,7.6,66,0.00,,,0.00,VWS V14.00,2013-01-08 05:50:00,
2013-01-08 00:57:00,32.9,22.8,30.39,SSW,207,0.0,8.3,66,0.00,,,0.00,VWS V14.00,2013-01-08 05:57:00,
2013-01-08 01:04:00,33.1,22.6,30.39,SW,221,7.6,10.1,65,0.00,,CLR,0.00,VWS V14.00,2013-01-08 06:04:00,
2013-01-08 01:10:00,33.1,22.6,30.39,SSW,210,5.4,10.1,65,0.00,,CLR,0.00,VWS V14.00,2013-01-08 06:10:00,
2013-01-08 01:15:00,33.1,22.6,30.39,ESE,113,4.0,5.8,65,0.00,,CLR,0.00,VWS V14.00,2013-01-08 06:15:00,
2013-01-08 01:22:00,33.6,23.5,30.39,SSE,164,5.4,5.4,66,0.00,,CLR,0.00,VWS V14.00,2013-01-08 06:22:00,
2013-01-08 01:29:00,34.0,23.8,30.39,SSW,192,4.0,10.5,66,0.00,,CLR,0.00,VWS V14.00,2013-01-08 06:29:00,
2013-01-08 01:36:00,34.0,23.8,30.39,SSW,195,4.9,6.3,66,0.00,,CLR,0.00,VWS V14.00,2013-01-08 06:36:00,
2013-01-08 01:43:00,33.8,24.4,30.39,South,178,0.0,5.8,68,0.00,,CLR,0.00,VWS V14.00,2013-01-08 06:43:00,
2013-01-08 01:50:00,33.8,24.4,30.39,South,173,4.9,8.1,68,0.00,,CLR,0.00,VWS V14.00,2013-01-08 06:50:00,
2013-01-08 01:55:00,33.8,25.1,30.39,SSW,200,0.0,8.1,70,0.00,,CLR,0.00,VWS V14.00,2013-01-08 06:55:00,
2013-01-08 02:02:00,33.8,25.7,30.39,SSW,193,0.0,3.6,72,0.00,,CLR,0.00,VWS V14.00,2013-01-08 07:02:00,
2013-01-08 02:09:00,33.8,25.7,30.39,South,184,2.7,4.0,72,0.00,,CLR,0.00,VWS V14.00,2013-01-08 07:09:00,
2013-01-08 02:16:00,33.6,25.6,30.39,SW,215,0.0,5.8,72,0.00,,CLR,0.00,VWS V14.00,2013-01-08 07:16:00,
2013-01-08 02:23:00,33.8,26.7,30.39,SSW,211,2.2,7.2,75,0.00,,CLR,0.00,VWS V14.00,2013-01-08 07:23:00,
2013-01-08 02:30:00,33.8,26.7,30.39,SSW,204,5.4,7.2,75,0.00,,CLR,0.00,VWS V14.00,2013-01-08 07:30:00,
2013-01-08 02:37:00,34.0,27.5,30.39,SSE,160,3.6,6.3,77,0.00,,CLR,0.00,VWS V14.00,2013-01-08 07:37:00,
2013-01-08 02:44:00,34.0,27.2,30.39,SSW,192,3.6,8.1,76,0.00,,CLR,0.00,VWS V14.00,2013-01-08 07:44:00,
2013-01-08 02:50:00,34.0,27.2,30.39,South,175,4.0,11.0,76,0.00,,CLR,0.00,VWS V14.00,2013-01-08 07:50:00,
2013-01-08 02:56:00,34.2,26.8,30.39,ESE,123,4.9,8.7,74,0.00,,CLR,0.00,VWS V14.00,2013-01-08 07:56:00,
2013-01-08 03:03:00,34.2,25.8,30.39,South,188,0.0,8.1,71,0.00,,CLR,0.00,VWS V14.00,2013-01-08 08:03:00,
2013-01-08 03:10:00,34.0,24.5,30.39,SSE,167,4.0,8.3,68,0.00,,CLR,0.00,VWS V14.00,2013-01-08 08:10:00,
2013-01-08 03:17:00,34.0,23.8,30.36,SSW,195,3.6,10.5,66,0.00,,CLR,0.00,VWS V14.00,2013-01-08 08:17:00,
2013-01-08 03:24:00,34.0,22.7,30.36,SW,215,8.3,8.3,63,0.00,,CLR,0.00,VWS V14.00,2013-01-08 08:24:00,
2013-01-08 03:30:00,34.0,22.4,30.36,SW,214,10.1,10.5,62,0.00,,CLR,0.00,VWS V14.00,2013-01-08 08:30:00,
2013-01-08 03:36:00,34.0,21.6,30.36,South,187,5.8,10.1,60,0.00,,CLR,0.00,VWS V14.00,2013-01-08 08:36:00,
2013-01-08 03:43:00,34.2,20.5,30.36,SW,225,6.3,15.4,57,0.00,,CLR,0.00,VWS V14.00,2013-01-08 08:43:00,
2013-01-08 03:50:00,34.3,20.3,30.36,SE,146,7.6,15.4,56,0.00,,CLR,0.00,VWS V14.00,2013-01-08 08:50:00,
2013-01-08 03:57:00,34.3,20.3,30.36,SSW,202,6.3,11.0,56,0.00,,CLR,0.00,VWS V14.00,2013-01-08 08:57:00,
2013-01-08 04:04:00,34.5,20.0,30.36,South,173,6.3,10.1,55,0.00,,CLR,0.00,VWS V14.00,2013-01-08 09:04:00,
2013-01-08 04:10:00,34.5,20.5,30.36,SW,229,13.2,13.2,56,0.00,,CLR,0.00,VWS V14.00,2013-01-08 09:10:00,
2013-01-08 04:16:00,34.7,20.6,30.36,SE,146,5.8,14.5,56,0.00,,CLR,0.00,VWS V14.00,2013-01-08 09:16:00,
2013-01-08 04:23:00,34.7,20.6,30.36,SW,223,3.6,8.3,56,0.00,,CLR,0.00,VWS V14.00,2013-01-08 09:23:00,
2013-01-08 04:30:00,34.5,20.9,30.36,SE,132,4.0,8.7,57,0.00,,CLR,0.00,VWS V14.00,2013-01-08 09:30:00,
2013-01-08 04:37:00,34.5,21.7,30.36,South,184,10.5,10.5,59,0.00,,CLR,0.00,VWS V14.00,2013-01-08 09:37:00,
2013-01-08 04:44:00,34.5,22.1,30.36,SSW,196,8.3,13.2,60,0.00,,CLR,0.00,VWS V14.00,2013-01-08 09:44:00,
2013-01-08 04:50:00,34.9,22.0,30.33,WSW,244,15.0,15.0,59,0.00,,CLR,0.00,VWS V14.00,2013-01-08 09:50:00,
2013-01-08 04:55:00,34.9,21.6,30.33,SSW,212,5.8,15.4,58,0.00,,CLR,0.00,VWS V14.00,2013-01-08 09:55:00,
2013-01-08 05:02:00,34.9,21.6,30.36,SSW,199,8.3,8.7,58,0.00,,CLR,0.00,VWS V14.00,2013-01-08 10:02:00,
2013-01-08 05:09:00,35.1,21.8,30.36,SW,218,7.6,17.4,58,0.00,,CLR,0.00,VWS V14.00,2013-01-08 10:09:00,
2013-01-08 05:17:00,35.2,21.5,30.33,SSW,212,5.8,12.8,57,0.00,,CLR,0.00,VWS V14.00,2013-01-08 10:17:00,
2013-01-08 05:24:00,35.4,21.7,30.33,South,187,7.6,15.0,57,0.00,,CLR,0.00,VWS V14.00,2013-01-08 10:24:00,
2013-01-08 05:30:00,35.4,21.7,30.33,SW,221,5.8,15.0,57,0.00,,CLR,0.00,VWS V14.00,2013-01-08 10:30:00,
2013-01-08 05:35:00,35.4,21.7,30.33,South,179,4.0,13.2,57,0.00,,CLR,0.00,VWS V14.00,2013-01-08 10:35:00,
2013-01-08 05:42:00,35.4,21.7,30.33,SW,234,5.8,11.0,57,0.00,,CLR,0.00,VWS V14.00,2013-01-08 10:42:00,
2013-01-08 05:49:00,35.4,21.7,30.33,South,184,3.6,13.2,57,0.00,,CLR,0.00,VWS V14.00,2013-01-08 10:49:00,
2013-01-08 05:56:00,35.4,22.1,30.33,South,184,8.7,9.6,58,0.00,,CLR,0.00,VWS V14.00,2013-01-08 10:56:00,
2013-01-08 06:03:00,35.6,21.9,30.33,SSW,196,12.8,12.8,57,0.00,,CLR,0.00,VWS V14.00,2013-01-08 11:03:00,
2013-01-08 06:10:00,35.8,21.2,30.33,SSW,206,10.5,13.2,55,0.00,,CLR,0.00,VWS V14.00,2013-01-08 11:10:00,
2013-01-08 06:17:00,36.1,20.7,30.33,WSW,237,8.3,13.6,53,0.00,,CLR,0.00,VWS V14.00,2013-01-08 11:17:00,
2013-01-08 06:24:00,36.1,20.7,30.33,SW,222,10.1,13.6,53,0.00,,CLR,0.00,VWS V14.00,2013-01-08 11:24:00,
2013-01-08 06:30:00,36.0,20.5,30.33,SW,230,8.1,14.5,53,0.00,,CLR,0.00,VWS V14.00,2013-01-08 11:30:00,
2013-01-08 06:36:00,36.1,20.2,30.33,South,179,11.0,17.0,52,0.00,,CLR,0.00,VWS V14.00,2013-01-08 11:36:00,
2013-01-08 06:43:00,36.0,20.1,30.33,SE,135,8.3,10.1,52,0.00,,CLR,0.00,VWS V14.00,2013-01-08 11:43:00,
2013-01-08 06:50:00,35.8,20.3,30.33,SSW,208,8.1,12.8,53,0.00,,CLR,0.00,VWS V14.00,2013-01-08 11:50:00,
2013-01-08 06:57:00,35.8,20.8,30.33,SSW,194,7.6,12.8,54,0.00,,CLR,0.00,VWS V14.00,2013-01-08 11:57:00,
2013-01-08 07:04:00,35.6,20.6,30.36,SW,230,5.8,11.4,54,0.00,,CLR,0.00,VWS V14.00,2013-01-08 12:04:00,
2013-01-08 07:10:00,35.6,20.6,30.36,SW,228,7.6,13.2,54,0.00,,CLR,0.00,VWS V14.00,2013-01-08 12:10:00,
2013-01-08 07:16:00,35.6,20.6,30.36,SSW,208,5.8,13.2,54,0.00,,CLR,0.00,VWS V14.00,2013-01-08 12:16:00,
2013-01-08 07:23:00,35.8,20.8,30.36,SW,223,10.1,13.2,54,0.00,,CLR,0.00,VWS V14.00,2013-01-08 12:23:00,
2013-01-08 07:30:00,35.8,20.3,30.36,SW,226,9.6,13.2,53,0.00,,CLR,0.00,VWS V14.00,2013-01-08 12:30:00,
2013-01-08 07:37:00,35.8,19.9,30.36,South,180,8.1,11.0,52,0.00,,CLR,0.00,VWS V14.00,2013-01-08 12:37:00,
2013-01-08 07:44:00,36.0,19.6,30.36,SSW,208,8.3,13.2,51,0.00,,CLR,0.00,VWS V14.00,2013-01-08 12:44:00,
2013-01-08 07:50:00,36.0,19.1,30.36,SSW,212,8.3,13.2,50,0.00,,CLR,0.00,VWS V14.00,2013-01-08 12:50:00,
2013-01-08 07:56:00,36.1,19.3,30.36,SSW,206,10.1,11.4,50,0.00,,CLR,0.00,VWS V14.00,2013-01-08 12:56:00,
2013-01-08 08:03:00,36.1,18.8,30.36,South,178,9.2,9.2,49,0.00,,SCT250,0.00,VWS V14.00,2013-01-08 13:03:00,
2013-01-08 08:10:00,36.1,18.8,30.36,SSW,206,10.1,15.0,49,0.00,,SCT250,0.00,VWS V14.00,2013-01-08 13:10:00,
2013-01-08 08:17:00,36.1,18.8,30.36,SW,215,8.3,16.3,49,0.00,,SCT250,0.00,VWS V14.00,2013-01-08 13:17:00,
2013-01-08 08:24:00,36.3,18.5,30.36,South,169,5.8,15.0,48,0.00,,SCT250,0.00,VWS V14.00,2013-01-08 13:24:00,
2013-01-08 08:30:00,36.3,18.5,30.36,SW,235,10.1,15.0,48,0.00,,SCT250,0.00,VWS V14.00,2013-01-08 13:30:00,
2013-01-08 08:35:00,36.3,18.5,30.36,South,177,7.6,15.0,48,0.00,,SCT250,0.00,VWS V14.00,2013-01-08 13:35:00,
2013-01-08 08:42:00,36.5,18.7,30.36,SW,227,15.0,15.0,48,0.00,,SCT250,0.00,VWS V14.00,2013-01-08 13:42:00,
2013-01-08 08:50:00,36.7,18.9,30.36,SW,216,8.1,15.0,48,0.00,,SCT250,0.00,VWS V14.00,2013-01-08 13:50:00,
2013-01-08 08:57:00,36.7,18.4,30.36,West,262,6.3,11.0,47,0.00,,SCT250,0.00,VWS V14.00,2013-01-08 13:57:00,
2013-01-08 09:04:00,36.7,18.4,30.36,SW,225,8.7,15.0,47,0.00,,CLR,0.00,VWS V14.00,2013-01-08 14:04:00,
2013-01-08 09:10:00,37.0,18.7,30.36,SSW,204,3.6,15.4,47,0.00,,CLR,0.00,VWS V14.00,2013-01-08 14:10:00,
2013-01-08 09:15:00,37.0,18.2,30.36,SW,222,8.1,12.8,46,0.00,,CLR,0.00,VWS V14.00,2013-01-08 14:15:00,
2013-01-08 09:22:00,37.6,18.2,30.36,ESE,123,4.0,12.8,45,0.00,,CLR,0.00,VWS V14.00,2013-01-08 14:22:00,
2013-01-08 09:29:00,37.6,18.2,30.36,South,190,6.3,17.0,45,0.00,,CLR,0.00,VWS V14.00,2013-01-08 14:29:00,
2013-01-08 09:36:00,38.1,18.7,30.36,SW,221,9.6,18.3,45,0.00,,CLR,0.00,VWS V14.00,2013-01-08 14:36:00,
2013-01-08 09:43:00,38.8,18.8,30.36,SW,234,8.7,11.0,44,0.00,,CLR,0.00,VWS V14.00,2013-01-08 14:43:00,
2013-01-08 09:50:00,38.7,18.6,30.36,SSW,207,8.7,17.4,44,0.00,,CLR,0.00,VWS V14.00,2013-01-08 14:50:00,
2013-01-08 09:57:00,38.7,18.6,30.36,SW,223,7.6,15.0,44,0.00,,CLR,0.00,VWS V14.00,2013-01-08 14:57:00,
2013-01-08 10:04:00,39.0,19.0,30.36,South,190,7.2,11.0,44,0.00,,BKN250,0.00,VWS V14.00,2013-01-08 15:04:00,
2013-01-08 10:10:00,39.7,19.1,30.36,SW,216,16.3,16.3,43,0.00,,BKN250,0.00,VWS V14.00,2013-01-08 15:10:00,
2013-01-08 10:16:00,39.7,18.5,30.36,SSW,202,11.0,22.8,42,0.00,,BKN250,0.00,VWS V14.00,2013-01-08 15:16:00,
2013-01-08 10:23:00,40.3,19.6,30.36,SW,215,10.1,14.5,43,0.00,,BKN250,0.00,VWS V14.00,2013-01-08 15:23:00,
2013-01-08 10:30:00,41.0,19.1,30.36,South,191,7.6,14.5,41,0.00,,BKN250,0.00,VWS V14.00,2013-01-08 15:30:00,
2013-01-08 10:37:00,40.6,18.8,30.33,SW,229,12.3,15.0,41,0.00,,BKN250,0.00,VWS V14.00,2013-01-08 15:37:00,
2013-01-08 10:44:00,40.5,18.6,30.33,SSW,199,10.5,14.5,41,0.00,,BKN250,0.00,VWS V14.00,2013-01-08 15:44:00,
2013-01-08 10:50:00,40.6,18.2,30.33,WSW,248,10.5,16.8,40,0.00,,BKN250,0.00,VWS V14.00,2013-01-08 15:50:00,
2013-01-08 10:56:00,41.9,18.8,30.33,SW,225,12.8,15.4,39,0.00,,BKN250,0.00,VWS V14.00,2013-01-08 15:56:00,
2013-01-08 11:03:00,42.4,18.6,30.33,SSW,202,15.0,15.0,38,0.00,,CLR,0.00,VWS V14.00,2013-01-08 16:03:00,
2013-01-08 11:10:00,42.4,18.6,30.33,WSW,244,15.4,17.9,38,0.00,,CLR,0.00,VWS V14.00,2013-01-08 16:10:00,
2013-01-08 11:17:00,42.3,18.5,30.30,SW,222,10.5,15.0,38,0.00,,CLR,0.00,VWS V14.00,2013-01-08 16:17:00,
2013-01-08 11:24:00,42.4,18.6,30.30,SW,223,10.5,14.1,38,0.00,,CLR,0.00,VWS V14.00,2013-01-08 16:24:00,
2013-01-08 11:30:00,42.6,18.8,30.30,SW,216,11.0,16.8,38,0.00,,CLR,0.00,VWS V14.00,2013-01-08 16:30:00,
2013-01-08 11:36:00,42.8,18.4,30.30,SE,133,8.7,15.4,37,0.00,,CLR,0.00,VWS V14.00,2013-01-08 16:36:00,
2013-01-08 11:43:00,42.6,18.2,30.30,SW,219,8.7,15.0,37,0.00,,CLR,0.00,VWS V14.00,2013-01-08 16:43:00,
2013-01-08 11:50:00,42.8,18.4,30.30,SW,220,8.7,15.0,37,0.00,,CLR,0.00,VWS V14.00,2013-01-08 16:50:00,
2013-01-08 11:57:00,43.0,18.5,30.30,South,190,8.3,12.8,37,0.00,,CLR,0.00,VWS V14.00,2013-01-08 16:57:00,
2013-01-08 12:04:00,43.0,17.9,30.30,SSE,154,5.4,10.1,36,0.00,,CLR,0.00,VWS V14.00,2013-01-08 17:04:00,
2013-01-08 12:10:00,43.3,18.2,30.30,SSE,164,8.7,12.3,36,0.00,,CLR,0.00,VWS V14.00,2013-01-08 17:10:00,
2013-01-08 12:16:00,43.7,18.5,30.27,SSW,197,5.8,12.8,36,0.00,,CLR,0.00,VWS V14.00,2013-01-08 17:16:00,
2013-01-08 12:23:00,44.2,19.0,30.27,SW,218,3.6,12.8,36,0.00,,CLR,0.00,VWS V14.00,2013-01-08 17:23:00,
2013-01-08 12:30:00,44.4,18.5,30.27,SSW,212,8.7,15.4,35,0.00,,CLR,0.00,VWS V14.00,2013-01-08 17:30:00,
2013-01-08 12:37:00,44.4,18.5,30.27,SSW,203,6.3,14.1,35,0.00,,CLR,0.00,VWS V14.00,2013-01-08 17:37:00,
2013-01-08 12:44:00,44.6,18.7,30.27,SSW,208,8.1,12.3,35,0.00,,CLR,0.00,VWS V14.00,2013-01-08 17:44:00,
2013-01-08 12:50:00,44.8,18.1,30.27,SW,226,7.6,12.8,34,0.00,,CLR,0.00,VWS V14.00,2013-01-08 17:50:00,
2013-01-08 12:55:00,45.0,18.3,30.27,SW,227,6.3,11.0,34,0.00,,CLR,0.00,VWS V14.00,2013-01-08 17:55:00,
2013-01-08 13:02:00,45.3,18.6,30.27,WSW,243,6.3,8.7,34,0.00,,BKN250,0.00,VWS V14.00,2013-01-08 18:02:00,
2013-01-08 13:09:00,45.5,18.8,30.27,SSW,210,7.6,11.0,34,0.00,,BKN250,0.00,VWS V14.00,2013-01-08 18:09:00,
2013-01-08 13:16:00,45.5,18.8,30.27,SSW,201,4.0,15.0,34,0.00,,BKN250,0.00,VWS V14.00,2013-01-08 18:16:00,
2013-01-08 13:24:00,45.7,18.2,30.27,SW,222,5.4,15.4,33,0.00,,BKN250,0.00,VWS V14.00,2013-01-08 18:24:00,
2013-01-08 13:30:00,45.9,18.4,30.27,SW,232,8.7,15.4,33,0.00,,BKN250,0.00,VWS V14.00,2013-01-08 18:30:00,
2013-01-08 13:35:00,45.9,18.4,30.27,SW,235,8.7,11.4,33,0.00,,BKN250,0.00,VWS V14.00,2013-01-08 18:35:00,
2013-01-08 13:42:00,45.9,18.4,30.27,SSW,194,3.6,10.1,33,0.00,,BKN250,0.00,VWS V14.00,2013-01-08 18:42:00,
2013-01-08 13:49:00,46.0,19.3,30.27,South,178,4.0,10.1,34,0.00,,BKN250,0.00,VWS V14.00,2013-01-08 18:49:00,
2013-01-08 13:56:00,46.0,18.6,30.27,SSW,206,5.4,8.7,33,0.00,,BKN250,0.00,VWS V14.00,2013-01-08 18:56:00,
2013-01-08 14:03:00,46.0,18.6,30.27,West,265,6.3,6.3,33,0.00,,BKN250,0.00,VWS V14.00,2013-01-08 19:03:00,
2013-01-08 14:10:00,46.0,19.3,30.27,SW,215,4.5,7.6,34,0.00,,BKN250,0.00,VWS V14.00,2013-01-08 19:10:00,
2013-01-08 14:17:00,46.0,18.6,30.27,South,174,4.0,10.5,33,0.00,,BKN250,0.00,VWS V14.00,2013-01-08 19:17:00,
2013-01-08 14:24:00,46.0,18.6,30.27,West,271,6.7,10.1,33,0.00,,BKN250,0.00,VWS V14.00,2013-01-08 19:24:00,
2013-01-08 14:30:00,46.0,18.6,30.27,SW,236,8.3,10.1,33,0.00,,BKN250,0.00,VWS V14.00,2013-01-08 19:30:00,
2013-01-08 14:36:00,46.2,18.7,30.27,WSW,246,4.9,13.2,33,0.00,,BKN250,0.00,VWS V14.00,2013-01-08 19:36:00,
2013-01-08 14:43:00,46.2,18.7,30.27,South,186,5.8,8.1,33,0.00,,BKN250,0.00,VWS V14.00,2013-01-08 19:43:00,
2013-01-08 14:50:00,46.2,18.7,30.30,West,260,5.8,8.3,33,0.00,,BKN250,0.00,VWS V14.00,2013-01-08 19:50:00,
2013-01-08 14:57:00,46.0,18.6,30.30,WSW,246,6.3,7.6,33,0.00,,BKN250,0.00,VWS V14.00,2013-01-08 19:57:00,
2013-01-08 15:04:00,46.2,18.7,30.30,SW,222,5.8,8.1,33,0.00,,CLR,0.00,VWS V14.00,2013-01-08 20:04:00,
2013-01-08 15:10:00,46.2,18.7,30.30,SSW,210,6.3,8.7,33,0.00,,CLR,0.00,VWS V14.00,2013-01-08 20:10:00,
2013-01-08 15:16:00,46.2,18.7,30.30,SSW,197,5.4,10.5,33,0.00,,CLR,0.00,VWS V14.00,2013-01-08 20:16:00,
2013-01-08 15:23:00,46.0,18.6,30.30,SW,225,7.6,10.1,33,0.00,,CLR,0.00,VWS V14.00,2013-01-08 20:23:00,
2013-01-08 15:30:00,45.5,18.1,30.30,South,189,5.4,10.1,33,0.00,,CLR,0.00,VWS V14.00,2013-01-08 20:30:00,
2013-01-08 15:37:00,45.3,17.9,30.30,SW,219,3.6,8.7,33,0.00,,CLR,0.00,VWS V14.00,2013-01-08 20:37:00,
2013-01-08 15:44:00,45.3,17.9,30.30,WSW,245,8.7,10.5,33,0.00,,CLR,0.00,VWS V14.00,2013-01-08 20:44:00,
2013-01-08 15:50:00,45.3,17.9,30.30,South,182,4.0,10.5,33,0.00,,CLR,0.00,VWS V14.00,2013-01-08 20:50:00,
2013-01-08 15:56:00,45.3,17.9,30.30,WSW,248,5.8,6.3,33,0.00,,CLR,0.00,VWS V14.00,2013-01-08 20:56:00,
2013-01-08 16:03:00,45.0,17.6,30.30,South,182,6.3,6.7,33,0.00,,CLR,0.00,VWS V14.00,2013-01-08 21:03:00,
2013-01-08 16:10:00,44.2,17.7,30.30,SW,214,5.4,7.6,34,0.00,,CLR,0.00,VWS V14.00,2013-01-08 21:10:00,
2013-01-08 16:17:00,43.5,17.0,30.30,South,177,0.0,4.9,34,0.00,,CLR,0.00,VWS V14.00,2013-01-08 21:17:00,
2013-01-08 16:24:00,42.8,17.1,30.30,South,191,2.7,3.1,35,0.00,,CLR,0.00,VWS V14.00,2013-01-08 21:24:00,
2013-01-08 16:30:00,42.1,17.1,30.30,SSW,193,0.0,3.1,36,0.00,,CLR,0.00,VWS V14.00,2013-01-08 21:30:00,
2013-01-08 16:36:00,41.5,17.2,30.30,SSW,204,0.0,0.0,37,0.00,,CLR,0.00,VWS V14.00,2013-01-08 21:36:00,
2013-01-08 16:43:00,41.2,17.5,30.30,SSE,156,2.7,4.0,38,0.00,,CLR,0.00,VWS V14.00,2013-01-08 21:43:00,
2013-01-08 16:50:00,41.2,17.5,30.30,SSE,158,0.0,4.0,38,0.00,,CLR,0.00,VWS V14.00,2013-01-08 21:50:00,
2013-01-08 16:57:00,41.2,17.5,30.30,South,180,0.0,2.2,38,0.00,,CLR,0.00,VWS V14.00,2013-01-08 21:57:00,
2013-01-08 17:04:00,41.2,17.5,30.30,SW,217,3.6,4.9,38,0.00,,CLR,0.00,VWS V14.00,2013-01-08 22:04:00,
2013-01-08 17:10:00,40.6,17.6,30.30,South,169,3.1,5.4,39,0.00,,CLR,0.00,VWS V14.00,2013-01-08 22:10:00,
2013-01-08 17:16:00,40.6,18.2,30.30,South,180,2.7,4.9,40,0.00,,CLR,0.00,VWS V14.00,2013-01-08 22:16:00,
2013-01-08 17:23:00,40.6,18.2,30.30,SSW,194,3.1,5.4,40,0.00,,CLR,0.00,VWS V14.00,2013-01-08 22:23:00,
2013-01-08 17:30:00,40.1,17.7,30.30,SSW,208,0.0,5.4,40,0.00,,CLR,0.00,VWS V14.00,2013-01-08 22:30:00,
2013-01-08 17:37:00,39.7,18.0,30.30,SSW,204,0.0,0.0,41,0.00,,CLR,0.00,VWS V14.00,2013-01-08 22:37:00,
2013-01-08 17:44:00,39.2,18.6,30.30,SSW,200,2.7,4.9,43,0.00,,CLR,0.00,VWS V14.00,2013-01-08 22:44:00,
2013-01-08 17:50:00,39.2,18.6,30.30,SW,217,3.1,5.4,43,0.00,,CLR,0.00,VWS V14.00,2013-01-08 22:50:00,
2013-01-08 17:55:00,38.7,18.6,30.30,SSE,161,2.2,3.1,44,0.00,,CLR,0.00,VWS V14.00,2013-01-08 22:55:00,
2013-01-08 18:02:00,38.8,18.8,30.33,South,184,2.2,4.0,44,0.00,,CLR,0.00,VWS V14.00,2013-01-08 23:02:00,
2013-01-08 18:09:00,38.7,18.6,30.33,SW,220,4.9,5.8,44,0.00,,CLR,0.00,VWS V14.00,2013-01-08 23:09:00,
2013-01-08 18:16:00,38.5,19.0,30.33,SSW,210,0.0,4.9,45,0.00,,CLR,0.00,VWS V14.00,2013-01-08 23:16:00,
2013-01-08 18:23:00,38.1,18.7,30.33,SSW,193,0.0,3.6,45,0.00,,CLR,0.00,VWS V14.00,2013-01-08 23:23:00,
2013-01-08 18:30:00,38.1,18.7,30.33,South,173,3.1,3.6,45,0.00,,CLR,0.00,VWS V14.00,2013-01-08 23:30:00,
2013-01-08 18:37:00,37.9,18.5,30.33,South,188,0.0,3.6,45,0.00,,CLR,0.00,VWS V14.00,2013-01-08 23:37:00,
2013-01-08 18:45:00,37.9,18.5,30.33,South,172,0.0,4.0,45,0.00,,CLR,0.00,VWS V14.00,2013-01-08 23:45:00,
2013-01-08 18:50:00,38.1,18.7,30.33,SSW,194,0.0,4.0,45,0.00,,CLR,0.00,VWS V14.00,2013-01-08 23:50:00,
2013-01-08 18:56:00,38.1,18.7,30.33,SSE,147,0.0,0.0,45,0.00,,CLR,0.00,VWS V14.00,2013-01-08 23:56:00,
2013-01-08 19:03:00,38.1,18.7,30.33,South,183,0.0,0.0,45,0.00,,CLR,0.00,VWS V14.00,2013-01-09 00:03:00,
2013-01-08 19:10:00,37.9,18.5,30.33,SW,220,0.0,3.1,45,0.00,,CLR,0.00,VWS V14.00,2013-01-09 00:10:00,
2013-01-08 19:17:00,37.9,18.5,30.33,South,183,0.0,0.0,45,0.00,,CLR,0.00,VWS V14.00,2013-01-09 00:17:00,
2013-01-08 19:24:00,37.6,18.2,30.33,South,183,0.0,0.0,45,0.00,,CLR,0.00,VWS V14.00,2013-01-09 00:24:00,
2013-01-08 19:30:00,37.0,17.7,30.33,SSW,212,0.0,2.7,45,0.00,,CLR,0.00,VWS V14.00,2013-01-09 00:30:00,
2013-01-08 19:36:00,35.8,17.5,30.36,South,184,0.0,2.2,47,0.00,,CLR,0.00,VWS V14.00,2013-01-09 00:36:00,
2013-01-08 19:43:00,35.6,17.4,30.36,SW,220,0.0,0.0,47,0.00,,CLR,0.00,VWS V14.00,2013-01-09 00:43:00,
2013-01-08 19:50:00,35.4,17.7,30.33,South,181,0.0,0.0,48,0.00,,CLR,0.00,VWS V14.00,2013-01-09 00:50:00,
2013-01-08 19:57:00,34.9,17.7,30.33,SSW,202,0.0,0.0,49,0.00,,CLR,0.00,VWS V14.00,2013-01-09 00:57:00,
2013-01-08 20:04:00,34.3,17.6,30.36,SSW,209,0.0,0.0,50,0.00,,CLR,0.00,VWS V14.00,2013-01-09 01:04:00,
2013-01-08 20:10:00,34.5,18.3,30.36,SW,216,0.0,0.0,51,0.00,,CLR,0.00,VWS V14.00,2013-01-09 01:10:00,
2013-01-08 20:16:00,35.1,19.2,30.36,WSW,246,0.0,0.0,52,0.00,,CLR,0.00,VWS V14.00,2013-01-09 01:16:00,
2013-01-08 20:23:00,35.6,18.8,30.36,SSE,167,0.0,0.0,50,0.00,,CLR,0.00,VWS V14.00,2013-01-09 01:23:00,
2013-01-08 20:30:00,36.7,18.9,30.36,SSW,204,0.0,0.0,48,0.00,,CLR,0.00,VWS V14.00,2013-01-09 01:30:00,
2013-01-08 20:37:00,37.6,18.7,30.36,SW,225,2.7,2.7,46,0.00,,CLR,0.00,VWS V14.00,2013-01-09 01:37:00,
2013-01-08 20:44:00,37.8,18.9,30.36,SSW,211,4.0,5.4,46,0.00,,CLR,0.00,VWS V14.00,2013-01-09 01:44:00,
2013-01-08 20:50:00,38.1,18.7,30.36,SSW,207,0.0,5.4,45,0.00,,CLR,0.00,VWS V14.00,2013-01-09 01:50:00,
2013-01-08 20:56:00,38.1,18.7,30.36,South,185,0.0,3.1,45,0.00,,CLR,0.00,VWS V14.00,2013-01-09 01:56:00,
2013-01-08 21:03:00,37.6,18.2,30.36,SSW,192,0.0,0.0,45,0.00,,CLR,0.00,VWS V14.00,2013-01-09 02:03:00,
2013-01-08 21:10:00,36.7,18.4,30.36,SW,227,4.0,4.0,47,0.00,,CLR,0.00,VWS V14.00,2013-01-09 02:10:00,
2013-01-08 21:17:00,36.5,18.7,30.33,South,190,4.0,5.4,48,0.00,,CLR,0.00,VWS V14.00,2013-01-09 02:17:00,
2013-01-08 21:24:00,37.2,18.9,30.33,West,277,0.0,3.6,47,0.00,,CLR,0.00,VWS V14.00,2013-01-09 02:24:00,
2013-01-08 21:30:00,37.2,18.9,30.33,SSW,209,4.0,7.2,47,0.00,,CLR,0.00,VWS V14.00,2013-01-09 02:30:00,
2013-01-08 21:35:00,37.6,18.7,30.36,SW,221,3.1,6.3,46,0.00,,CLR,0.00,VWS V14.00,2013-01-09 02:35:00,
2013-01-08 21:42:00,37.8,18.9,30.36,SW,218,0.0,3.1,46,0.00,,CLR,0.00,VWS V14.00,2013-01-09 02:42:00,
2013-01-08 21:50:00,37.6,18.7,30.36,SSW,194,2.2,3.1,46,0.00,,CLR,0.00,VWS V14.00,2013-01-09 02:50:00,
2013-01-08 21:57:00,37.4,18.5,30.36,SSW,209,2.2,5.8,46,0.00,,CLR,0.00,VWS V14.00,2013-01-09 02:57:00,
2013-01-08 22:04:00,37.6,18.7,30.36,SSW,209,2.7,4.0,46,0.00,,CLR,0.00,VWS V14.00,2013-01-09 03:04:00,
2013-01-08 22:10:00,37.6,18.2,30.36,SW,216,5.4,5.8,45,0.00,,CLR,0.00,VWS V14.00,2013-01-09 03:10:00,
2013-01-08 22:15:00,37.6,18.2,30.36,SW,218,5.8,5.8,45,0.00,,CLR,0.00,VWS V14.00,2013-01-09 03:15:00,
2013-01-08 22:22:00,37.4,18.0,30.36,SW,221,2.7,3.6,45,0.00,,CLR,0.00,VWS V14.00,2013-01-09 03:22:00,
2013-01-08 22:29:00,36.9,18.0,30.36,SSW,204,0.0,3.6,46,0.00,,CLR,0.00,VWS V14.00,2013-01-09 03:29:00,
2013-01-08 22:36:00,36.5,17.7,30.36,SSW,202,0.0,3.6,46,0.00,,CLR,0.00,VWS V14.00,2013-01-09 03:36:00,
2013-01-08 22:43:00,36.1,17.9,30.36,SSW,202,0.0,0.0,47,0.00,,CLR,0.00,VWS V14.00,2013-01-09 03:43:00,
2013-01-08 22:50:00,36.1,17.9,30.36,SSW,202,0.0,0.0,47,0.00,,CLR,0.00,VWS V14.00,2013-01-09 03:50:00,
2013-01-08 22:57:00,36.1,17.9,30.36,SSW,202,0.0,0.0,47,0.00,,CLR,0.00,VWS V14.00,2013-01-09 03:57:00,
2013-01-08 23:05:00,35.8,17.5,30.36,SSW,202,0.0,0.0,47,0.00,,CLR,0.00,VWS V14.00,2013-01-09 04:05:00,
2013-01-08 23:10:00,36.1,17.9,30.36,South,174,0.0,4.0,47,0.00,,CLR,0.00,VWS V14.00,2013-01-09 04:10:00,
2013-01-08 23:16:00,36.1,17.9,30.36,NW,316,0.0,0.0,47,0.00,,CLR,0.00,VWS V14.00,2013-01-09 04:16:00,
2013-01-08 23:23:00,36.0,17.7,30.36,NW,307,0.0,3.1,47,0.00,,CLR,0.00,VWS V14.00,2013-01-09 04:23:00,
2013-01-08 23:30:00,36.0,17.2,30.36,SW,220,3.6,3.6,46,0.00,,CLR,0.00,VWS V14.00,2013-01-09 04:30:00,
2013-01-08 23:37:00,35.8,17.0,30.39,WNW,297,0.0,4.0,46,0.00,,CLR,0.00,VWS V14.00,2013-01-09 04:37:00,
2013-01-08 23:44:00,35.8,17.0,30.39,WSW,252,0.0,3.6,46,0.00,,CLR,0.00,VWS V14.00,2013-01-09 04:44:00,
2013-01-08 23:50:00,35.8,17.0,30.39,SW,230,0.0,3.6,46,0.00,,CLR,0.00,VWS V14.00,2013-01-09 04:50:00,
2013-01-08 23:56:00,35.6,16.9,30.39,SW,232,2.2,3.6,46,0.00,,CLR,0.00,VWS V14.00,2013-01-09 04:56:00,